Location: Seasalter
(51.3333°N, 1.0167°E)
Time: 04:56:19
(UTC+00:00)

Daily predictions for brighter satellites

Satellite Brightness Start Highest point End
(mag) Time Altitude Azimuth Time Altitude Azimuth Time Altitude Azimuth
ATLAS 3B R/B 4.4 00:03:42 10° WNW 00:10:15 32° N 00:17:03 10° ENE
CZ-4C R/B 4.3 00:08:44 10° NW 00:11:30 27° NW 00:11:30 27° NW
Cosmos 2082 Rocket 4.3 01:02:42 19° ENE 01:02:42 19° ENE 01:05:17 10° NE
IDEFIX/ARIANE 42P 4.4 01:09:05 10° NNE 01:12:00 26° ENE 01:12:00 26° ENE
Cosmos 1833 Rocket 4.1 01:18:16 34° NE 01:18:16 34° NE 01:21:26 10° NNE
CZ-2C R/B 4.3 01:27:26 26° ENE 01:28:03 27° ENE 01:32:24 10° N
SL-16 R/B 3.2 01:28:59 52° NE 01:28:59 52° NE 01:34:38 10° N
Cosmos 1980 Rocket 4.1 01:29:00 10° NNW 01:30:49 21° NNW 01:30:49 21° NNW
SJ 16-02 4.0 01:38:10 15° N 01:38:10 15° N 01:39:12 10° N
SL-16 R/B 3.7 01:35:05 10° NNW 01:40:14 34° NE 01:45:22 10° ESE
Resurs 1-4 Rocket 3.2 01:39:37 10° NNE 01:43:07 40° NE 01:43:07 40° NE
CZ-2D R/B 3.1 01:40:28 10° NNE 01:44:21 44° NE 01:44:21 44° NE
USA 281 3.8 01:39:53 10° NE 01:46:05 48° ESE 01:46:05 48° ESE
USA 215 4.1 01:44:29 10° ESE 01:48:21 39° ESE 01:48:21 39° ESE
MSX 4.3 01:52:00 10° NNE 01:56:52 56° ENE 01:56:52 56° ENE
ATLAS 3B R/B 3.9 01:55:39 10° NW 02:02:53 44° NNE 02:10:18 10° E
Cosmos 2322 Rocket 3.7 01:59:17 10° NNW 02:04:27 34° NE 02:09:35 10° ESE
NOSS 3-4 (A) 3.6 02:13:22 61° N 02:13:22 61° N 02:19:01 10° NE
NOSS 3-4 (C) 3.6 02:13:29 62° N 02:13:29 62° N 02:19:08 10° NE
COSMOS 2406 3.5 02:14:46 64° ENE 02:14:46 64° ENE 02:19:55 10° NNE
Cosmos 1428 Rocket 4.4 02:16:56 78° NNE 02:16:56 78° NNE 02:22:41 10° N
ASTEX 1 4.2 02:12:09 10° NNE 02:16:10 50° NE 02:16:10 50° NE
Lacrosse 4 Rocket 3.1 02:23:45 32° ENE 02:23:45 32° ENE 02:26:21 10° NE
Cosmos 1680 Rocket 4.2 02:19:49 10° NNW 02:25:03 54° ENE 02:27:56 26° SE
ADEOS II 2.3 02:20:43 10° NNE 02:25:14 66° NNE 02:25:14 66° NNE
Cosmos 2195 Rocket 4.3 02:26:48 82° NNW 02:26:48 82° NNW 02:32:45 10° N
Cosmos 2360 Rocket 3.5 02:28:27 10° NNW 02:33:48 40° NE 02:39:07 10° ESE
Cosmos 1553 Rocket 4.1 02:28:51 10° N 02:35:00 73° ENE 02:37:03 44° SSE
ATLAS 5 CENTAUR R/B 2.9 02:36:43 33° NNE 02:36:43 33° NNE 02:39:18 10° NE
Cosmos-2242 4.1 02:37:56 42° NNE 02:37:56 42° NNE 02:40:52 10° NNE
Cosmos 2333 Rocket 3.7 02:31:46 10° NNW 02:37:02 36° NE 02:42:16 10° ESE
Thor Agena Rocket 4.1 02:32:42 10° NNE 02:37:51 52° E 02:38:37 48° SE
Nadezhda 4 Rocket 4.5 02:40:18 46° NW 02:40:18 46° NW 02:45:48 10° N
Cosmos 2026 Rocket 3.8 02:42:02 77° WSW 02:42:15 78° W 02:48:25 10° N
Cosmos 304 Rocket 4.0 02:43:48 66° ENE 02:43:48 66° ENE 02:48:09 10° NNE
Cosmos 2082 Rocket 2.1 02:44:33 77° NW 02:44:33 77° NW 02:50:16 10° NNE
NPP 4.3 02:42:13 10° N 02:46:35 43° NW 02:46:35 43° NW
Cosmos 1812 Rocket 4.0 02:48:13 61° NE 02:48:13 61° NE 02:52:03 10° NNE
Cosmos 332 Rocket 4.5 02:48:17 45° ESE 02:48:43 47° ESE 02:53:18 10° NE
Cosmos 1627 Rocket 4.3 02:49:15 69° W 02:49:35 70° WNW 02:55:47 10° N
CZ-4 R/B 3.9 02:45:24 10° NNE 02:49:51 74° ENE 02:49:51 74° ENE
ATLAS CENTAUR R/B 3.7 02:48:30 41° S 02:50:27 52° SE 03:01:25 10° ENE
Cosmos 1898 Rocket 3.8 02:51:03 55° SE 02:51:48 61° ESE 02:57:04 10° NNE
CZ-2C R/B 3.9 02:48:22 10° NNE 02:52:43 31° E 02:55:28 18° SE
IDEFIX/ARIANE 42P 3.3 02:48:32 10° N 02:52:46 41° NW 02:52:46 41° NW
NOSS 2-2 (E) 3.8 02:55:40 86° NW 02:55:46 90° SW 03:02:00 10° SE
NOSS 2-3 (E) 4.4 02:53:22 37° NW 02:55:54 75° SW 03:03:38 10° SE
Cosmos 44 3.7 02:58:37 53° SSE 02:59:12 57° ESE 03:04:26 10° NE
Cosmos 1833 Rocket 3.8 02:59:58 28° NW 03:00:16 29° NW 03:05:08 10° NNE
Cosmos 990 Rocket 3.9 03:00:59 69° WNW 03:00:59 69° WNW 03:06:16 10° NNE
Cosmos 1937 Rocket 3.9 03:02:00 43° SSE 03:03:20 56° ESE 03:08:25 10° NNE
Aureole 1 Rocket 4.2 03:03:03 53° W 03:04:05 59° WNW 03:09:51 10° NNE
NOSS 3-1 (C) 4.2 02:57:33 10° NW 03:04:33 72° NE 03:13:07 10° SE
Cosmos 1092 Rocket 4.1 03:04:15 53° W 03:04:48 54° WNW 03:11:03 10° N
Meteor 2-17 Rocket 4.3 03:04:26 60° WSW 03:05:16 68° WNW 03:11:22 10° N
ALOS 2.2 03:01:09 10° NNE 03:05:51 80° ESE 03:06:14 72° SSE
ATLAS CENTAUR R/B 3.8 03:06:32 11° NNW 03:07:18 11° N 03:08:29 10° N
CZ-2C R/B 2.9 03:08:57 49° WNW 03:08:57 49° WNW 03:13:12 10° NNW
Cosmos 1417 Rocket 4.4 03:02:50 10° N 03:09:08 87° E 03:15:11 11° S
SL-16 R/B 3.4 03:14:05 30° WNW 03:14:05 30° WNW 03:18:05 10° NNW
NOSS 2-2 (D) 3.8 03:13:18 46° NW 03:14:45 85° SW 03:20:54 10° SE
NOSS 2-2 (C) 3.8 03:15:56 44° NW 03:17:28 83° SW 03:23:37 10° SE
Meteor 1-25 Rocket 4.2 03:13:11 10° NNW 03:18:49 65° W 03:20:47 40° SSW
CZ-2C R/B 3.3 03:14:46 10° NNE 03:20:39 85° ESE 03:23:22 33° SSW
IRS-1D 3.9 03:15:40 10° NNE 03:21:00 67° ESE 03:24:00 26° S
RESURS DK-1 3.0 03:21:54 44° NNW 03:21:54 44° NNW 03:25:26 10° NNE
BlueWalker 3 2.1 03:21:58 65° N 03:21:58 65° N 03:25:46 10° E
Meteor 1-20 Rocket 4.3 03:17:41 10° NNW 03:23:19 52° W 03:24:07 49° WSW
BREEZE-M DEB 4.3 03:24:31 18° ESE 03:24:31 18° ESE 03:25:23 10° E
Cosmos 2219 Rocket 3.2 03:18:36 10° NNW 03:24:01 46° NE 03:29:28 10° SE
Resurs 1-4 Rocket 3.3 03:20:03 10° N 03:24:10 25° NW 03:24:10 25° NW
SL-16 R/B 2.2 03:19:05 10° NW 03:24:40 57° WSW 03:30:11 10° S
CZ-2D R/B 3.3 03:21:03 10° N 03:25:32 27° WNW 03:25:38 27° WNW
Cosmos 1933 3.3 03:25:46 67° SSE 03:26:13 80° E 03:30:12 10° NNE
FENGYUN 3A 3.8 03:25:10 10° N 03:30:24 53° WNW 03:31:30 45° WSW
USA 281 3.6 03:24:31 10° NNE 03:30:45 47° NW 03:32:57 35° W
Cosmos 372 Rocket 3.8 03:29:24 43° SSW 03:31:06 88° ESE 03:36:15 10° NNE
Cosmos 1461 3.5 03:31:30 44° WNW 03:32:01 46° NW 03:36:23 10° NE
Cosmos 371 Rocket 3.9 03:33:36 37° WNW 03:33:58 38° NW 03:38:31 10° NNE
USA 215 3.6 03:28:31 10° SSE 03:34:32 38° SW 03:35:44 35° WSW
ATLAS 2AS CENTAUR R/B 3.0 03:33:16 28° SSW 03:37:36 75° SE 03:44:50 10° NE
S3M 3.9 03:31:39 10° NNW 03:38:02 73° W 03:44:21 10° S
Cosmos 1812 3.6 03:39:25 33° NW 03:39:25 33° NW 03:42:03 10° N
SL-24 DEB 4.3 03:38:05 46° SW 03:39:05 56° W 03:43:46 10° NNW
YAOGAN 6 3.0 03:38:20 10° NNE 03:41:40 55° E 03:43:05 30° SSE
Iridium 4 Rocket 4.0 03:39:04 10° NNW 03:44:02 37° W 03:44:29 37° W
Cosmos 2237 4.5 03:38:59 10° NW 03:44:23 43° WSW 03:49:45 10° S
METEOR-M 4.1 03:39:11 10° NNE 03:44:35 88° ESE 03:48:31 19° SSW
Cosmos 494 Rocket 4.2 03:39:37 10° NNW 03:44:48 72° ENE 03:49:55 10° SSE
Cosmos 2315 Rocket 4.0 03:38:51 10° N 03:45:16 88° E 03:51:40 10° S
Cosmos 1766 Rocket 3.5 03:41:31 10° NNW 03:45:51 62° W 03:48:24 24° S
Cosmos 2322 Rocket 2.2 03:43:15 10° NW 03:48:46 55° WSW 03:54:17 10° S
Cosmos 2112 Rocket 4.3 03:45:29 10° NW 03:50:30 42° WSW 03:55:30 10° S
Okean 3 Rocket 3.5 03:46:26 10° NNW 03:50:58 85° W 03:55:24 10° S
SL-4 R/B 2.4 03:51:57 34° S 03:51:57 34° S 03:54:27 10° SE
Cosmos 1743 4.1 03:48:52 10° N 03:52:26 39° ENE 03:55:58 10° SE
ATLAS 3B R/B 2.9 03:46:37 10° NW 03:54:21 80° SW 04:02:08 10° SE
Envisat 3.0 03:49:26 10° NNE 03:54:33 84° ESE 03:59:23 11° SSW
Cosmos 1048 Rocket 4.2 03:51:45 10° NNW 03:57:06 77° ENE 04:02:20 10° SSE
COSMOS 2406 4.3 03:56:49 24° WNW 03:58:57 30° NW 04:04:02 10° NNE
Cosmos 883 Rocket 4.4 03:53:47 10° NNW 04:00:03 69° W 04:06:20 10° S
NOSS 7 (E) 4.3 03:58:55 25° NW 04:00:37 82° NE 04:04:13 10° SE
Lacrosse 4 Rocket 2.5 03:59:50 27° WNW 04:00:52 30° NW 04:04:43 10° NNE
Cosmos 405 Rocket 4.3 04:02:46 19° NW 04:02:46 19° NW 04:04:55 10° NNW
Meteor 1-14 Rocket 4.4 03:57:41 10° NNW 04:03:42 84° ENE 04:09:42 10° SSE
Cosmos 1782 3.3 04:04:01 35° W 04:04:32 37° WNW 04:08:10 10° N
ADEOS II 3.5 04:01:20 10° N 04:05:02 20° NW 04:06:07 19° WNW
Cosmos 489 Rocket 4.5 04:00:43 17° SSW 04:05:52 81° WNW 04:12:16 10° NNE
Cosmos 1680 Rocket 4.3 04:02:24 10° NW 04:06:51 28° W 04:07:46 26° WSW
Cosmos 292 Rocket 4.0 04:02:32 11° SSW 04:07:07 69° ESE 04:11:55 10° NNE
Meteor 1-26 Rocket 4.2 04:02:07 10° SSW 04:08:02 75° WNW 04:13:51 10° N
Cosmos 1484 Rocket 3.4 04:04:27 10° NNE 04:08:02 52° E 04:11:35 10° S
Cosmos 1842 Rocket 3.6 04:04:55 10° S 04:09:23 86° E 04:13:54 10° NNE
COBE Rocket 3.8 04:07:05 10° NNE 04:11:51 85° ESE 04:16:41 10° SSW
GP-B 3.3 04:07:47 10° S 04:12:12 74° E 04:16:38 10° N
Cosmos 2266 Rocket 4.1 04:07:39 13° SSW 04:13:15 58° WNW 04:19:34 10° N
Lacrosse 5 rocket 3.8 04:10:44 10° SSE 04:13:19 16° SE 04:15:50 10° E
CBERS-1 4.0 04:08:22 10° NNE 04:13:32 88° ESE 04:18:38 10° SSW
NOSS 3-1 (A) 4.0 04:06:40 10° NW 04:13:48 90° NE 04:22:30 10° SE
Cosmos 2221 2.8 04:13:15 23° SW 04:15:34 47° WNW 04:19:47 10° N
Helios 1A 2.9 04:13:22 10° SSE 04:17:29 86° ENE 04:21:37 10° NNW
Cosmos 2360 Rocket 2.4 04:12:30 10° NW 04:17:54 46° WSW 04:23:17 10° S
Cosmos 1867 4.1 04:13:26 10° NW 04:18:53 60° NE 04:24:17 10° ESE
Cosmos 2333 4.2 04:14:05 10° NW 04:19:45 63° WSW 04:25:25 10° SSE
ATLAS 5 CENTAUR R/B 3.3 04:17:52 13° NW 04:20:13 21° NNW 04:23:38 10° NE
Cosmos 2333 Rocket 2.3 04:16:00 10° NW 04:21:34 55° WSW 04:27:08 10° S
Cosmos 2237 Rocket 3.9 04:18:52 10° NNW 04:24:02 34° NE 04:29:10 10° ESE
Cosmos 2322 3.8 04:20:13 10° NNW 04:25:59 82° ENE 04:31:41 10° SSE
COSMOS 2428 3.1 04:20:51 10° NNW 04:26:34 69° ENE 04:32:14 10° SE
ARIANE 5 R/B 3.3 04:23:58 10° NNE 04:28:57 54° E 04:33:51 10° S
Cosmos 2082 Rocket 3.7 04:26:24 14° WNW 04:29:34 22° NW 04:33:57 10° NNE
Cosmos 1743 Rocket 3.6 04:25:27 10° N 04:29:48 79° E 04:34:08 10° SSE
Cosmos 1515 3.7 04:27:45 13° SSW 04:30:55 51° WNW 04:34:31 10° N
CZ-2C R/B 2.8 04:26:24 10° N 04:31:00 41° WNW 04:34:47 14° SW
Cosmos 1900 4.3 04:27:09 10° NW 04:32:15 81° SW 04:37:23 10° SSE
Cosmos 2285 Rocket 4.1 04:26:22 10° NNW 04:32:25 50° WSW 04:38:28 10° S
Cosmos 1805 Rocket 3.6 04:29:24 10° N 04:33:45 82° ENE 04:38:05 10° SSE
H-2A R/B 3.5 04:29:32 10° NNE 04:34:44 43° E 04:39:54 10° S
ERS-2 3.3 04:32:02 10° NNE 04:35:02 37° E 04:38:00 10° S
PAYLOAD A 4.3 04:30:56 10° N 04:35:25 42° WNW 04:39:58 10° SW
Cosmos 1271 Rocket 2.6 04:32:42 10° NNW 04:36:31 87° WSW 04:40:14 10° S
Cosmos 1655 Rocket 4.3 04:31:48 10° SSW 04:37:59 50° WNW 04:44:13 10° N
Cosmos 44 4.2 04:37:01 16° W 04:40:42 38° NW 04:45:44 10° NE
ALOS 3.9 04:39:32 10° NNW 04:42:35 18° WNW 04:44:37 14° W
Nadezhda 1 Rocket 4.5 04:37:48 10° N 04:44:10 69° ENE 04:50:24 10° SSE
ATLAS CENTAUR R/B 3.7 04:45:11 10° NNW 04:46:57 13° NNE 04:48:42 10° NE
Cosmos 1939 Rocket 3.7 04:44:45 10° NNE 04:48:30 51° E 04:52:15 10° S
SKYMED 2 4.0 04:44:47 10° SSE 04:49:06 69° ENE 04:53:27 10° N
Meteor 2-6 Rocket 4.1 04:48:42 10° SSW 04:54:05 62° WNW 04:59:27 10° N
NOSS 3-1 (C) 4.5 04:48:32 10° NW 04:55:22 41° WSW 05:03:24 10° S
Cosmos 1408 Rocket 4.1 04:51:36 10° NNW 04:55:35 35° W 04:59:34 10° SSW
Cosmos 1833 4.3 04:51:14 10° SW 04:56:51 63° NW 05:02:27 10° NNE
ATLAS CENTAUR R/B 4.3 04:52:24 11° WSW 04:59:28 73° NNW 05:14:27 10° ENE
BlueWalker 3 2.0 04:56:42 10° WNW 05:00:34 86° NNE 05:04:27 10° ESE
SL-27 R/B 2.1 04:59:58 10° SSW 05:03:02 64° WNW 05:06:10 10° NNE
NOSS 3 (A) 4.0 05:04:33 14° W 05:05:37 31° NW 05:07:10 10° NNE
Helios 1B rocket 4.2 05:02:35 10° NNE 05:06:18 35° E 05:09:59 10° SSE
Cosmos 2219 Rocket 2.7 05:02:43 10° NW 05:07:56 39° WSW 05:13:07 10° S
SL-08 R/B 3.3 05:04:50 10° SSE 05:09:34 78° WSW 05:14:26 10° NNW
Cosmos 1536 2.9 05:09:40 10° NNW 05:13:26 49° W 05:17:10 10° S
YAOGAN 6 4.3 05:12:20 10° NNW 05:14:06 14° WNW 05:15:53 10° W
Sich 1 3.3 05:10:38 10° NNW 05:14:43 43° W 05:18:49 10° SSW
